DW2270 Weather Reports


Display with metric or nautical units.
time (UTC)temp
F
wind
direction
speed
MPH
gust
MPH
rain 1hr
in
rain 24hr
in
rain mn
in
humidity
%
barometer
mb
20260510182101 90 324 1.0 6.0 0.00 0.04 0.00 61 1012.4
20260510181124 89 132 0.0 6.0 0.00 0.04 0.00 61 1012.4
20260510172705 87 149 1.0 7.0 0.00 0.04 0.00 62 1012.8
20260510171633 87 125 2.0 8.0 0.00 0.04 0.00 62 1013.1
20260510170601 87 86 1.0 8.0 0.00 0.04 0.00 62 1013.2
20260510165544 86 86 1.0 6.0 0.00 0.04 0.00 61 1013.4
20260510164521 86 147 1.0 8.0 0.00 0.04 0.00 61 1013.5
20260510163451 85 158 1.0 8.0 0.00 0.04 0.00 58 1013.6
20260510162449 85 126 1.0 5.0 0.00 0.04 0.00 56 1013.8
20260510161428 84 26 1.0 5.0 0.00 0.04 0.00 55 1013.8
20260510155239 82 108 0.0 3.0 0.00 0.04 0.00 38 1014.1
20260510154222 81 319 1.0 4.0 0.00 0.04 0.00 27 1014.1
20260510153224 80 150 1.0 4.0 0.00 0.04 0.00 3 1014.0
20260510152240 79 138 0.0 3.0 0.00 0.04 0.00 1 1014.1
20260510151214 78 141 0.0 5.0 0.00 0.04 0.00 1 1014.1
20260510150207 78 121 0.0 5.0 0.00 0.04 0.00 1 1014.1
20260510145203 77 343 0.0 2.0 0.00 0.04 0.00 1 1014.3
20260510144156 77 91 0.0 3.0 0.00 0.04 0.00 1 1014.4
20260510143203 77 0 0.0 2.0 0.00 0.04 0.00 1 1014.4
20260510142208 76 199 0.0 0.0 0.00 0.04 0.00 1 1014.4
20260510141150 76 344 0.0 3.0 0.00 0.04 0.00 1 1014.4
20260510135030 75 334 0.0 2.0 0.00 0.04 0.00 1 1014.4
20260510134014 75 327 0.0 2.0 0.00 0.04 0.00 1 1014.3
20260510131849 74 13 0.0 0.0 0.00 0.04 0.00 1 1014.1
20260510130819 74 128 0.0 0.0 0.00 0.04 0.00 1 1013.9
20260510125805 74 128 0.0 0.0 0.00 0.04 0.00 1 1013.6
20260510124735 73 128 0.0 0.0 0.00 0.04 0.00 1 1013.3
20260510123759 73 128 0.0 0.0 0.00 0.04 0.00 1 1013.1
20260510121559 72 128 0.0 0.0 0.00 0.04 0.00 1 1012.8
20260510120611 72 128 0.0 0.0 0.00 0.04 0.00 1 1012.7
20260510115549 72 128 0.0 0.0 0.00 0.04 0.00 1 1012.5
20260510113501 72 129 0.0 0.0 0.00 0.04 0.00 1 1012.0
20260510112444 72 128 0.0 0.0 0.00 0.04 0.00 1 1011.9
20260510111421 71 129 0.0 0.0 0.00 0.04 0.00 1 1011.6
20260510110347 71 129 0.0 0.0 0.00 0.04 0.00 1 1011.0
20260510105320 71 129 0.0 0.0 0.00 0.04 0.00 1 1011.0
20260510104320 70 129 0.0 0.0 0.00 0.04 0.00 1 1010.9
20260510103313 70 129 0.0 0.0 0.00 0.04 0.00 1 1010.7
20260510102338 69 129 0.0 0.0 0.00 0.04 0.00 1 1010.5
20260510101319 69 129 0.0 0.0 0.00 0.04 0.00 1 1010.5
20260510100254 69 129 0.0 0.0 0.00 0.04 0.00 1 1010.4
20260510095306 69 129 0.0 0.0 0.00 0.04 0.00 1 1010.3
20260510094252 69 129 0.0 0.0 0.00 0.04 0.00 1 1010.3
20260510093317 69 129 0.0 0.0 0.00 0.04 0.00 1 1010.1
20260510092320 69 129 0.0 0.0 0.00 0.04 0.00 1 1010.1
20260510090151 69 129 0.0 0.0 0.00 0.04 0.00 1 1009.9
20260510084011 70 129 0.0 0.0 0.00 0.04 0.00 1 1010.0
20260510083020 70 129 0.0 0.0 0.00 0.04 0.00 1 1010.0
20260510080809 70 129 0.0 0.0 0.00 0.04 0.00 1 1010.1
20260510075812 70 129 0.0 0.0 0.00 0.04 0.00 1 1010.2
20260510074756 70 129 0.0 0.0 0.00 0.04 0.00 1 1010.1
20260510073739 70 129 0.0 0.0 0.00 0.04 0.00 1 1010.2
20260510072800 70 129 0.0 0.0 0.00 0.04 0.00 1 1010.1
20260510071735 70 129 0.0 0.0 0.00 0.04 0.00 1 1010.1
20260510070708 70 129 0.0 0.0 0.00 0.04 0.00 1 1010.2
20260510064527 71 129 0.0 0.0 0.00 0.04 0.00 1 1010.4
20260510063459 71 129 0.0 0.0 0.00 0.04 0.00 1 1010.5
20260510062502 71 129 0.0 0.0 0.00 0.04 0.00 1 1010.6
20260510061433 71 129 0.0 0.0 0.00 0.04 0.00 1 1010.6
20260510060412 71 129 0.0 0.0 0.00 0.04 0.00 1 1010.6
20260510055338 71 129 0.0 0.0 0.00 0.04 0.00 1 1010.6
20260510054345 71 129 0.0 0.0 0.00 0.04 0.00 1 1010.6
20260510053401 71 129 0.0 0.0 0.00 0.04 0.00 1 1010.7
20260510052334 71 129 0.0 0.0 0.00 0.04 0.00 1 1010.8
20260510051354 71 129 0.0 0.0 0.00 0.04 0.00 1 1010.7
20260510050336 71 129 0.0 0.0 0.00 0.04 0.00 1 1010.7
20260510045344 72 129 0.0 0.0 0.00 0.04 0.05 1 1010.7
20260510044328 72 129 0.0 0.0 0.00 0.04 0.05 1 1010.8
20260510043350 72 129 0.0 0.0 0.00 0.04 0.05 2 1010.9
20260510042337 72 129 0.0 0.0 0.00 0.04 0.05 4 1011.0
20260510041329 72 129 0.0 0.0 0.00 0.04 0.05 7 1011.0
20260510040306 73 129 0.0 0.0 0.00 0.04 0.05 11 1011.1
20260510035305 73 129 0.0 2.0 0.00 0.04 0.05 13 1010.6
20260510034239 74 129 0.0 0.0 0.00 0.04 0.05 18 1010.8
20260510033212 74 129 0.0 5.0 0.00 0.04 0.04 24 1010.9
20260510032202 75 164 0.0 0.0 0.00 0.04 0.04 29 1010.9
20260510031220 76 109 0.0 4.0 0.06 0.04 0.04 39 1011.0
20260510030207 77 88 0.0 5.0 0.24 0.03 0.03 51 1011.2
20260510025147 78 35 1.0 6.0 0.00 0.00 0.00 59 1011.3
20260510023036 78 140 0.0 11.0 0.00 0.00 0.00 64 1010.2
20260510022041 79 100 0.0 1.0 0.00 0.00 0.00 64 1009.5
20260510021015 79 100 0.0 0.0 0.00 0.01 0.00 64 1009.1
20260510015947 80 100 0.0 0.0 0.00 0.01 0.00 63 1008.5
20260510014946 80 100 0.0 0.0 0.00 0.01 0.00 63 1008.5
20260510013938 81 100 0.0 8.0 0.00 0.01 0.00 63 1008.4
20260510011830 83 64 0.0 9.0 0.00 0.01 0.00 63 1008.2
20260510005645 84 95 0.0 0.0 0.00 0.01 0.00 62 1007.8
20260510004659 84 69 0.0 0.0 0.00 0.01 0.00 62 1007.6
20260510003708 85 88 0.0 5.0 0.00 0.01 0.00 56 1007.4
20260510002706 86 93 0.0 0.0 0.00 0.01 0.00 52 1007.5
20260510001652 86 93 0.0 0.0 0.00 0.01 0.00 54 1007.5
20260510000647 86 93 0.0 0.0 0.00 0.01 0.00 57 1007.3
20260509235613 87 93 0.0 0.0 0.00 0.01 0.00 58 1007.2
20260509234552 87 93 0.0 0.0 0.00 0.01 0.00 58 1007.2
20260509233604 88 93 0.0 0.0 0.00 0.01 0.00 62 1007.3
20260509232537 88 93 0.0 0.0 0.00 0.01 0.00 62 1007.2
20260509231542 88 93 0.0 0.0 0.00 0.01 0.00 63 1007.3
20260509230511 89 93 0.0 0.0 0.00 0.01 0.00 63 1007.2
20260509225510 90 93 0.0 2.0 0.00 0.01 0.00 62 1007.0
20260509223340 91 92 0.0 3.0 0.00 0.01 0.00 59 1007.0
20260509222317 91 187 0.0 1.0 0.00 0.01 0.00 58 1006.8
20260509221250 91 187 0.0 0.0 0.00 0.01 0.00 59 1006.7
20260509220250 90 187 0.0 1.0 0.00 0.01 0.00 59 1006.8
20260509215242 91 185 0.0 3.0 0.00 0.01 0.00 59 1006.8
20260509214229 92 182 0.0 3.0 0.00 0.01 0.00 59 1006.9
20260509213251 93 72 0.0 2.0 0.00 0.01 0.00 57 1006.8
20260509212226 92 92 0.0 0.0 0.00 0.01 0.00 56 1006.9
20260509211227 92 89 0.0 3.0 0.00 0.01 0.00 59 1006.9
20260509210244 93 89 0.0 2.0 0.00 0.01 0.00 58 1007.1
20260509204151 93 163 0.0 3.0 0.00 0.01 0.00 58 1007.3
20260509202020 91 166 1.0 5.0 0.00 0.01 0.00 59 1007.6
20260509201021 92 93 0.0 5.0 0.00 0.01 0.00 60 1007.6
20260509200001 91 96 0.0 5.0 0.00 0.01 0.00 60 1007.8
20260509193809 91 79 0.0 1.0 0.00 0.01 0.00 60 1008.1
20260509192744 90 79 0.0 1.0 0.00 0.01 0.00 61 1008.1
20260509191750 89 98 0.0 2.0 0.00 0.01 0.00 62 1008.2
20260509190754 89 321 0.0 2.0 0.00 0.01 0.00 62 1008.5
20260509185807 89 345 0.0 3.0 0.00 0.01 0.00 63 1008.6
20260509184818 88 117 0.0 5.0 0.00 0.01 0.00 63 1008.8
20260509183833 87 89 1.0 5.0 0.00 0.01 0.00 62 1008.9